Find Marafon-D GVM

NORAD ID: 59072 Int'l Des: 2024-039 Owner: NPOPM Country: RU operational
LEOCIRCULARPOLAR

实时位置

正在加载3D地球...

关于 Marafon-D GVM

正在加载描述...

即将过境

Passes for default location (London). Set your location on the main map for personalized predictions.

高度历史

Loading altitude history...

两行轨道根数

1 59072U 24039V 26104.56668605 .00000189 00000-0 48777-4 0 9991
2 59072 88.9778 291.5316 0016294 183.5861 176.5230 14.45980965111999
Epoch: Apr 14, 2026 • Age: 11 hours

当前状态

高度 731.9 km
速度 7.50 km/s
星下点 25.86°N, 96.35°W
发射日期 Feb 29, 2024
运行时间 2.1 years
类型 other

技术详情

分类 Payload
质量 50.00 kg
干质量 50.00 kg
总质量 50.00 kg
长度 0.70 m
直径 0.30 m
跨度 0.70 m
形状 Box
制造商 NPOPM
平台类型 Marafon
阶段状态 In Orbit
所有者/国家 NPOPM/RU

Most Searched